N172SB KGRB-KSUE

Flight info

Callsign N172SB
Flight time 0h 24m
Altitude 5000
Route NENSE
Aircraft C172/L-SFG/C

Departure

Time 2026-05-06 16:39
Airport Austin Straubel International Airport (KGRB)

Arrival

Time 2026-05-06 17:04
Airport Door County Cherryland Airport (KSUE)
Time Latitude Longitude Altitude Speed Heading
2026-05-06 16:32 44.49093 -88.12787 689 ft 0 kts 75°
2026-05-06 16:34 44.49054 -88.12817 685 ft 11 kts 214°
2026-05-06 16:34 44.48992 -88.12902 688 ft 14 kts 218°
2026-05-06 16:34 44.48897 -88.12983 686 ft 17 kts 207°
2026-05-06 16:34 44.48791 -88.13067 688 ft 19 kts 212°
2026-05-06 16:35 44.48671 -88.13166 693 ft 8 kts 211°
2026-05-06 16:35 44.48619 -88.13192 690 ft 12 kts 214°
2026-05-06 16:35 44.48527 -88.13208 690 ft 20 kts 180°
2026-05-06 16:35 44.48340 -88.13212 686 ft 30 kts 179°
2026-05-06 16:36 44.48131 -88.13210 681 ft 32 kts 178°
2026-05-06 16:36 44.47931 -88.13211 682 ft 25 kts 179°
2026-05-06 16:36 44.47773 -88.13211 682 ft 21 kts 181°
2026-05-06 16:36 44.47647 -88.13210 685 ft 15 kts 179°
2026-05-06 16:37 44.47553 -88.13209 687 ft 14 kts 180°
2026-05-06 16:37 44.47445 -88.13209 685 ft 16 kts 179°
2026-05-06 16:37 44.47331 -88.13205 685 ft 17 kts 180°
2026-05-06 16:37 44.47217 -88.13209 684 ft 16 kts 181°
2026-05-06 16:38 44.47142 -88.13259 681 ft 0 kts 255°
2026-05-06 16:38 44.47143 -88.13321 681 ft 13 kts 282°
2026-05-06 16:38 44.47236 -88.13365 682 ft 28 kts
2026-05-06 16:39 44.47608 -88.13363 688 ft 76 kts 359°
2026-05-06 16:39 44.48180 -88.13388 895 ft 83 kts 358°
2026-05-06 16:39 44.48738 -88.13382 1205 ft 76 kts
2026-05-06 16:39 44.49252 -88.13357 1484 ft 72 kts 354°
2026-05-06 16:40 44.49753 -88.13336 1763 ft 74 kts 354°
2026-05-06 16:40 44.50260 -88.13245 2064 ft 73 kts
2026-05-06 16:40 44.50766 -88.12988 2290 ft 86 kts 33°
2026-05-06 16:40 44.51105 -88.12274 2517 ft 90 kts 50°
2026-05-06 16:41 44.51480 -88.11569 2728 ft 94 kts 45°
2026-05-06 16:41 44.51854 -88.10787 2955 ft 99 kts 55°
2026-05-06 16:41 44.52111 -88.09855 3150 ft 104 kts 70°
2026-05-06 16:41 44.52158 -88.08863 3367 ft 105 kts 98°
2026-05-06 16:42 44.52061 -88.07856 3632 ft 100 kts 98°
2026-05-06 16:42 44.51931 -88.06916 3883 ft 97 kts 104°
2026-05-06 16:42 44.51820 -88.05995 4133 ft 94 kts 99°
2026-05-06 16:42 44.51808 -88.05088 4332 ft 95 kts 88°
2026-05-06 16:43 44.51847 -88.04137 4532 ft 97 kts 83°
2026-05-06 16:43 44.51933 -88.03210 4767 ft 96 kts 81°
2026-05-06 16:43 44.52029 -88.02274 4951 ft 101 kts 79°
2026-05-06 16:43 44.52112 -88.01290 5163 ft 101 kts 88°
2026-05-06 16:44 44.52098 -88.00311 5389 ft 100 kts 92°
2026-05-06 16:44 44.52076 -87.99306 5530 ft 106 kts 90°
2026-05-06 16:44 44.52108 -87.98227 5525 ft 117 kts 87°
2026-05-06 16:44 44.52154 -87.97080 5579 ft 119 kts 85°
2026-05-06 16:45 44.52192 -87.95903 5587 ft 122 kts 87°
2026-05-06 16:45 44.52240 -87.94715 5599 ft 122 kts 88°
2026-05-06 16:45 44.52257 -87.93519 5622 ft 123 kts 89°
2026-05-06 16:45 44.52316 -87.92314 5618 ft 125 kts 85°
2026-05-06 16:46 44.52393 -87.91064 5554 ft 130 kts 84°
2026-05-06 16:46 44.52460 -87.89826 5593 ft 125 kts 90°
2026-05-06 16:46 44.52486 -87.88601 5590 ft 125 kts 89°
2026-05-06 16:46 44.52509 -87.87414 5518 ft 125 kts 89°
2026-05-06 16:47 44.52533 -87.86197 5508 ft 124 kts 90°
2026-05-06 16:47 44.52562 -87.84991 5501 ft 124 kts 89°
2026-05-06 16:47 44.52589 -87.83774 5503 ft 125 kts 89°
2026-05-06 16:47 44.52614 -87.82573 5506 ft 125 kts 89°
2026-05-06 16:48 44.52642 -87.81354 5507 ft 125 kts 89°
2026-05-06 16:48 44.52677 -87.80141 5503 ft 124 kts 87°
2026-05-06 16:48 44.52718 -87.78931 5504 ft 123 kts 88°
2026-05-06 16:48 44.52763 -87.77727 5502 ft 124 kts 88°
2026-05-06 16:49 44.52804 -87.76520 5505 ft 125 kts 88°
2026-05-06 16:49 44.52842 -87.75301 5500 ft 126 kts 88°
2026-05-06 16:49 44.52885 -87.74084 5499 ft 125 kts 88°
2026-05-06 16:49 44.52928 -87.72873 5495 ft 124 kts 88°
2026-05-06 16:50 44.52968 -87.71658 5496 ft 125 kts 88°
2026-05-06 16:50 44.53012 -87.70446 5508 ft 126 kts 84°
2026-05-06 16:50 44.53329 -87.69315 5499 ft 124 kts 62°
2026-05-06 16:50 44.53574 -87.68591 5500 ft 123 kts 62°
2026-05-06 16:51 44.54080 -87.67134 5504 ft 125 kts 62°
2026-05-06 16:51 44.54463 -87.66028 5508 ft 127 kts 62°
2026-05-06 16:51 44.54851 -87.64915 5503 ft 126 kts 62°
2026-05-06 16:51 44.55227 -87.63832 5501 ft 124 kts 62°
2026-05-06 16:52 44.55606 -87.62742 5500 ft 123 kts 62°
2026-05-06 16:52 44.55981 -87.61670 5500 ft 124 kts 61°
2026-05-06 16:52 44.56404 -87.60627 5499 ft 123 kts 57°
2026-05-06 16:52 44.56836 -87.59599 5498 ft 122 kts 57°
2026-05-06 16:53 44.57267 -87.58575 5497 ft 122 kts 57°
2026-05-06 16:53 44.57550 -87.57894 5497 ft 122 kts 57°
2026-05-06 16:53 44.57858 -87.56776 5503 ft 125 kts 76°
2026-05-06 16:53 44.58144 -87.55210 5503 ft 124 kts 74°
2026-05-06 16:54 44.58288 -87.54433 5503 ft 124 kts 74°
2026-05-06 16:54 44.58509 -87.53250 5502 ft 125 kts 74°
2026-05-06 16:54 44.58802 -87.51692 5499 ft 124 kts 74°
2026-05-06 16:54 44.59183 -87.50638 5494 ft 121 kts 40°
2026-05-06 16:55 44.59645 -87.50204 5498 ft 117 kts 19°
2026-05-06 16:55 44.60422 -87.49935 5499 ft 115 kts
2026-05-06 16:55 44.61191 -87.49685 5501 ft 114 kts
2026-05-06 16:55 44.61973 -87.49436 5502 ft 116 kts
2026-05-06 16:56 44.62757 -87.49185 5502 ft 115 kts
2026-05-06 16:56 44.63538 -87.48937 5500 ft 115 kts
2026-05-06 16:56 44.64313 -87.48688 5502 ft 114 kts
2026-05-06 16:56 44.65083 -87.48442 5502 ft 115 kts
2026-05-06 16:57 44.65868 -87.48192 5502 ft 116 kts
2026-05-06 16:57 44.66657 -87.47939 5502 ft 116 kts
2026-05-06 16:57 44.67417 -87.47665 5343 ft 112 kts 13°
2026-05-06 16:57 44.68146 -87.47287 5133 ft 111 kts 17°
2026-05-06 16:58 44.68868 -87.46853 4879 ft 113 kts 18°
2026-05-06 16:58 44.69604 -87.46455 4579 ft 115 kts 13°
2026-05-06 16:58 44.70356 -87.46146 4308 ft 113 kts
2026-05-06 16:58 44.71116 -87.45912 4086 ft 110 kts
2026-05-06 16:59 44.71870 -87.45683 3851 ft 111 kts
2026-05-06 16:59 44.72607 -87.45475 3648 ft 108 kts
2026-05-06 16:59 44.73357 -87.45292 3357 ft 111 kts
2026-05-06 16:59 44.74107 -87.45133 3137 ft 107 kts
2026-05-06 17:00 44.74842 -87.44988 2887 ft 107 kts
2026-05-06 17:00 44.75574 -87.44837 2694 ft 109 kts
2026-05-06 17:00 44.76330 -87.44693 2646 ft 109 kts
2026-05-06 17:00 44.77056 -87.44484 2500 ft 104 kts
2026-05-06 17:01 44.77746 -87.44260 2372 ft 99 kts
2026-05-06 17:01 44.78411 -87.44089 2218 ft 98 kts
2026-05-06 17:01 44.79072 -87.43885 2063 ft 94 kts
2026-05-06 17:01 44.79697 -87.43706 1922 ft 90 kts
2026-05-06 17:02 44.80311 -87.43532 1728 ft 92 kts
2026-05-06 17:02 44.80925 -87.43329 1525 ft 90 kts
2026-05-06 17:02 44.81538 -87.43161 1329 ft 88 kts 11°
2026-05-06 17:02 44.82114 -87.42972 1133 ft 82 kts 15°
2026-05-06 17:03 44.82652 -87.42826 963 ft 78 kts 11°
2026-05-06 17:03 44.83131 -87.42655 853 ft 64 kts
2026-05-06 17:03 44.83552 -87.42517 770 ft 62 kts
2026-05-06 17:03 44.83954 -87.42392 722 ft 53 kts
2026-05-06 17:04 44.84211 -87.42311 722 ft 20 kts 14°
2026-05-06 17:04 44.84382 -87.42259 721 ft 27 kts 12°
2026-05-06 17:04 44.84463 -87.42295 721 ft 14 kts 273°
2026-05-06 17:04 44.84464 -87.42320 722 ft 0 kts 273°
2026-05-06 17:05 44.84463 -87.42328 722 ft 5 kts 235°
2026-05-06 17:05 44.84410 -87.42355 722 ft 13 kts 196°
2026-05-06 17:05 44.84310 -87.42385 722 ft 15 kts 194°
2026-05-06 17:05 44.84218 -87.42417 722 ft 10 kts 209°
2026-05-06 17:06 44.84185 -87.42472 722 ft 1 kts 184°